AirNav   Air Wisconsin pilot careers
 
 486 users online  

L77 Chiriaco Summit Airport
Chiriaco Summit, California, USA

GOING TO CHIRIACO SUMMIT?


FAA INFORMATION EFFECTIVE 13 SEPTEMBER 2018

Location

FAA Identifier: L77
Lat/Long: 33-39-53.3200N / 115-42-37.4900W
33-39.888667N / 115-42.624833W
33.6648111 / -115.7104139
(estimated)
Elevation: 1710.7 ft. / 521.4 m (surveyed)
Variation: 13E (1985)
From city: 1 mile NE of CHIRIACO SUMMIT, CA
Time zone: UTC -7 (UTC -8 during Standard Time)
Zip code: 92254

Airport Operations

Airport use: Open to the public
Activation date: 04/1943
Control tower: no
ARTCC: LOS ANGELES CENTER
FSS: RIVERSIDE FLIGHT SERVICE STATION
NOTAMs facility: RAL (NOTAM-D service available)
Attendance: UNATNDD
Wind indicator: yes
Segmented circle: yes

Airport Communications

CTAF: 122.9

Nearby radio navigation aids

VOR radial/distance  VOR name  Freq  Var
TRMr071/22.6THERMAL VORTAC116.2013E
TNPr159/27.0TWENTYNINE PALMS VORTAC114.2015E
PSPr096/37.9PALM SPRINGS VORTAC115.5013E

Airport Services

Parking: tiedowns
Airframe service: NONE
Powerplant service: NONE
Bottled oxygen: NONE
Bulk oxygen: NONE

Runway Information

Runway 6/24

Dimensions: 4000 x 50 ft. / 1219 x 15 m
Surface: asphalt, in excellent condition
Weight bearing capacity: 
Single wheel: GROSS WEIGHT STRENGTH PRVDD BY ARPT MANAGEMENT 6000 LBS.
Gradient: SW
RUNWAY 6  RUNWAY 24
Latitude: 33-39.825687N33-39.951623N
Longitude: 115-43.011935W115-42.237773W
Elevation: 1710.7 ft.1680.8 ft.
Gradient: 0.7% UP
Traffic pattern: leftleft
Markings: basic, in good conditionbasic, in good condition
Runway end identifier lights: nono
Touchdown point: yes, no lightsyes, no lights

Airport Ownership and Management from official FAA records

Ownership: Publicly-owned
Owner: COUNTY OF RIVERSIDE
3403 10TH STREET, SUITE 400
RIVERSIDE, CA 92501
Phone 951-955-8916
Manager: LILIANA VALLE
3403 10TH STREET, SUITE 400
RIVERSIDE, CA 92501
Phone (951) 955-9418

Airport Operational Statistics

Aircraft operations: avg 115/week *
100% transient general aviation
* for 12-month period ending 28 February 2018

Additional Remarks

PILOTS VISIBILITY IS LIMITED TO 1400 FT FROM EITHER END OF RY 06/24.

Instrument Procedures

There are no published instrument procedures at L77.

Some nearby airports with instrument procedures:

KTRM - Jacqueline Cochran Regional Airport (23 nm W)
KUDD - Bermuda Dunes Airport (29 nm W)
KTNP - Twentynine Palms Airport (30 nm NW)
KCLR - Cliff Hatfield Memorial Airport (33 nm S)
L08 - Borrego Valley Airport (39 nm SW)
 
Loc | Ops | Rwys | IFR | FBO | Links
Com | Nav | Svcs | Stats | Notes


 
Area around L77 (Chiriaco Summit Airport)
 
Road maps at: MapQuest Bing Google
 
Aerial photo
WARNING: Photo may not be current or correct
Aerial photo of L77 (Chiriaco Summit Airport)
looking northeast

Do you have a better or more recent aerial photo of Chiriaco Summit Airport that you would like to share? If so, please send us your photo.

 
Sectional chart

 
Airport distance calculator
Flying to Chiriaco Summit Airport? Find the distance to fly.

From to L77

Sunrise and sunset
Times for 25-Sep-2018
 Local
(UTC-7)
 Zulu
(UTC)
Morning civil twilight06:0913:09
Sunrise06:3413:34
Sunset18:3501:35
Evening civil twilight19:0002:00

Current date and time
Zulu (UTC)  25-Sep-2018 09:53:50
Local (UTC-7)  25-Sep-2018 02:53:50
 
METAR
KTRM 
23nm W 
250852Z AUTO 35004KT 10SM CLR 26/12 A2972 RMK AO2 SLP069 T02560122 51004
KTNP 
30nm NW 
SuperAWOS
250855Z AUTO 27006KT 10SM 25/03 A2994
KL08 
39nm SW 
250935Z AUTO 00000KT 10SM CLR 22/10 A2976 RMK AO2
KPSP 
40nm W 
250853Z AUTO 00000KT 10SM CLR 26/12 A2979 RMK AO2 SLP083 T02560122 51006
KNXP 
44nm NW 
250856Z AUTO 33008KT 10SM CLR 24/03 A2994 RMK AO2 SLP099 T02440033 51008 $
TAF
KTRM 
23nm W 
250520Z 2506/2606 33010KT P6SM SKC FM251200 VRB04KT P6SM SKC FM251800 14007KT P6SM SKC FM260200 VRB05KT P6SM SKC
NOTAMs
Click for the latest NOTAMs
NOTAMs are issued by the DoD/FAA and will open in a separate window not controlled by AirNav.

 

 
 

Would you like to see your business listed on this page?

 If your business provides an interesting product or service to pilots, flight crews, aircraft, or users of the Chiriaco Summit Airport, you should consider listing it here.  To start the listing process, click on the button below
 
Add a business
 

Other Pages about Chiriaco Summit Airport

www.rivcoeda.org/Default.aspx?tabid=504
www.desertusa.com/...
 
Update a link
 
Copyright © AirNav, LLC. All rights reserved. Privacy Policy  Contact